Regional Weather Roundup
Issued by NWS

Home | Current Version | Previous Version | Graphics & Text | Print | Product List | Glossary Off
Versions: 1 2 3 4 5 6 7 8 9 10 11 12 13 14 15 16 17 18 19 20 21 22 23 24 25 26 27 28 29 30 31 32 33 34 35 36 37 38 39 40 41 42 43 44 45 46 47 48 49 50

000
ASUS43 KTOP 272108
RWRKS

WEATHER ROUNDUP FOR KANSAS
NATIONAL WEATHER SERVICE GOODLAND KS
400 PM CDT THU JUL 27 2017

NOTE:  "FAIR" INDICATES FEW OR NO CLOUDS BELOW 12,000 FEET WITH NO
SIGNIFICANT WEATHER AND/OR OBSTRUCTIONS TO VISIBILITY.

KSZ001>006-013>018-027>032-041>047-272200-
NORTHWEST KANSAS

CITY           SKY/WX    TMP DP  RH WIND       PRES   REMARKS
GOODLAND       CLOUDY    81  64  56 E3        30.13F
HAYS           CLOUDY    84  66  54 NE10      30.04F
HILL CITY      PTSUNNY   87  65  47 NE8       30.06F
RUSSELL        PTSUNNY   86  65  49 NE14      30.01F
$$

KSZ061>065-074>080-084>089-272200-
SOUTHWEST KANSAS

CITY           SKY/WX    TMP DP  RH WIND       PRES   REMARKS
DODGE CITY     CLOUDY    80  71  74 VRB3      30.08F
ELKHART          N/A     83  60  45 SE8         N/A
GARDEN CITY    CLOUDY    77  67  71 VRB3      30.10F
GREAT BEND     CLOUDY    84  68  58 NE10      30.02F
LIBERAL        MOSUNNY   83  70  64 N7        30.10F
PRATT          CLOUDY    82  68  62 N9        30.02F
$$

KSZ066>073-081>083-090>101-272200-
SOUTHEAST KANSAS

CITY           SKY/WX    TMP DP  RH WIND       PRES   REMARKS
CHANUTE        CLOUDY    89  75  63 N10       29.92F HX  99
COFFEYVILLE    MOSUNNY   93  74  53 S7        29.90F HX 103
HUTCHINSON     CLOUDY    84  72  67 NE7       29.99F
MEDICINE LODGE   N/A     87  71  58 N12       29.97F
NEWTON         CLOUDY    80  73  79 N8        30.00S
PARSONS        PTSUNNY   90  72  55 VRB5      29.91F HX  97
WICHITA INTL   CLOUDY    85  75  72 N16       29.96S
WICHITA JABRA  CLOUDY    85  75  72 N16       29.96F
WICHITA MCCONL CLOUDY    84  73  70 N20       29.96S
WINFIELD       MOSUNNY   91  72  53 S7        29.93F HX  98
$$

KSZ007>012-019>026-033>040-048>060-102>105-272200-
NORTHEAST KANSAS

CITY           SKY/WX    TMP DP  RH WIND       PRES   REMARKS
CONCORDIA      MOSUNNY   85  68  56 N13       30.02F
EMPORIA        CLOUDY    83  72  69 NE8       29.96F
LAWRENCE       PTSUNNY   84  75  74 N7        29.95S
MANHATTAN      CLOUDY    89  69  51 NE13      29.98F
MARYSVILLE     MOSUNNY   84  70  61 NE9       30.01F
OLATHE IND     PTSUNNY   84  74  71 N9        29.96S
OLATHE EXE     MOSUNNY   84  74  71 N7        29.95F
SALINA         MOSUNNY   87  68  52 NE15      29.99F
TOPEKA BILLARD MOSUNNY   86  75  69 N8        29.95F HX  95
TOPEKA FORBES  PTSUNNY   85  73  67 NE9       29.96F
$$




USA.gov is the U.S. government's official web portal to all federal, state and local government web resources and services.